Weather History for Florala, AL

Change the Weather History Date:

Friday, February 8, 2013

  Actual Average (KCEW) Record (KCEW)
Temperature  
Mean Temperature 62 °F -  
Max Temperature 70 °F 61 °F 78 °F (1999)
Min Temperature 55 °F 33 °F 20 °F (1976)
Degree Days  
Heating Degree Days 2    
Growing Degree Days 12 (Base 50)    
Moisture  
Dew Point 54 °F    
Average Humidity 78    
Maximum Humidity 96    
Minimum Humidity 58    
Precipitation  
Precipitation 0.00 in - - ()
Sea Level Pressure  
Sea Level Pressure 30.05 in    
Wind  
Wind Speed 2 mph (North)    
Max Wind Speed 10 mph    
Max Gust Speed 20 mph    
Visibility 10 miles    
Events      
Averages and records for this station are not official NWS values.
T = Trace of Precipitation, MM = Missing Value Source: NWS Daily Summary

Daily Weather History Graph

Daily Weather History Graph

Search for Another Location

Airport:

Trip Planner

Search our weather history database for the weather conditions in past years. The results will help you decide how hot, cold, wet, or windy it might be!

Date:

Astronomy

Feb. 08, 2013 Rise Set
Actual Time 6:32 AM CST 5:27 PM CST
Civil Twilight 6:07 AM CST 5:52 PM CST
Nautical Twilight 5:38 AM CST 6:20 PM CST
Astronomical Twilight 5:10 AM CST 6:49 PM CST
Moon 4:57 AM CST (2/8) 4:01 PM CST (2/8)
Length of Visible Light 11h 45m
Length of Day
10h 55m
Waning Crescent, 3% of the Moon is Illuminated
Feb 8
Waning Crescent
Feb 10
New
Feb 17
First Quarter
Feb 25
Full
Mar 4
Last Quarter

Hourly Weather History & Observations

Time (CST) Temp. Dew Point Humidity Pressure Visibility Wind Dir Wind Speed Gust Speed Precip Events Conditions
12:10 AM 57.2 °F 55.4 °F 94% 29.96 in 8.0 mi Calm Calm - N/A   Mostly Cloudy
12:58 AM 57.0 °F 55.9 °F 96% 29.96 in 9.0 mi Calm Calm - N/A   Overcast
1:38 AM 57.2 °F 55.4 °F 94% 29.96 in 8.0 mi Calm Calm - N/A   Overcast
1:58 AM 57.9 °F 55.9 °F 93% 29.96 in 9.0 mi Calm Calm - N/A   Overcast
2:44 AM 57.2 °F 55.4 °F 94% 29.96 in 9.0 mi Calm Calm - N/A   Overcast
2:58 AM 57.9 °F 55.9 °F 93% 29.96 in 9.0 mi Calm Calm - N/A   Overcast
3:52 AM 57.2 °F 55.4 °F 94% 29.97 in 10.0 mi Calm Calm - N/A   Overcast
3:58 AM 57.9 °F 55.9 °F 93% 29.97 in 10.0 mi Calm Calm - N/A   Overcast
4:05 AM 57.2 °F 55.4 °F 94% 29.97 in 10.0 mi Calm Calm - N/A   Overcast
4:58 AM 57.9 °F 55.9 °F 93% 29.98 in 10.0 mi Calm Calm - N/A   Overcast
5:58 AM 57.9 °F 55.0 °F 90% 30.01 in 10.0 mi Calm Calm - N/A   Overcast
6:58 AM 57.9 °F 55.0 °F 90% 30.02 in 10.0 mi Calm Calm - N/A   Overcast
7:58 AM 57.9 °F 54.0 °F 87% 30.05 in 10.0 mi Calm Calm - N/A   Overcast
8:46 AM 60.8 °F 53.6 °F 77% 30.05 in 10.0 mi Calm Calm - N/A   Scattered Clouds
8:54 AM 60.8 °F 53.6 °F 77% 30.06 in 10.0 mi Calm Calm - N/A   Mostly Cloudy
8:58 AM 61.0 °F 54.0 °F 78% 30.05 in 10.0 mi SSW 3.5 mph - N/A   Mostly Cloudy
9:12 AM 60.8 °F 53.6 °F 77% 30.06 in 10.0 mi Calm Calm - N/A   Scattered Clouds
9:24 AM 62.6 °F 55.4 °F 77% 30.06 in 10.0 mi SSW 3.5 mph - N/A   Mostly Cloudy
9:30 AM 62.6 °F 53.6 °F 72% 30.07 in 10.0 mi Calm Calm - N/A   Scattered Clouds
9:58 AM 63.0 °F 55.0 °F 75% 30.06 in 10.0 mi South 3.5 mph - N/A   Mostly Cloudy
10:45 AM 66.2 °F 55.4 °F 68% 30.07 in 10.0 mi Calm Calm - N/A   Mostly Cloudy
10:58 AM 66.0 °F 55.0 °F 68% 30.06 in 10.0 mi Calm Calm - N/A   Mostly Cloudy
11:22 AM 68.0 °F 55.4 °F 64% 30.06 in 10.0 mi Calm Calm - N/A   Overcast
11:27 AM 66.2 °F 55.4 °F 68% 30.06 in 10.0 mi Variable 4.6 mph - N/A   Overcast
11:33 AM 66.2 °F 55.4 °F 68% 30.06 in 10.0 mi Calm Calm - N/A   Overcast
11:40 AM 66.2 °F 55.4 °F 68% 30.06 in 10.0 mi Variable 3.5 mph - N/A   Overcast
11:44 AM 66.2 °F 55.4 °F 68% 30.06 in 10.0 mi Variable 3.5 mph - N/A   Overcast
11:58 AM 66.9 °F 55.0 °F 66% 30.05 in 10.0 mi Variable 3.5 mph - N/A   Overcast
12:58 PM 68.0 °F 55.9 °F 65% 30.03 in 10.0 mi Variable 3.5 mph - N/A   Overcast
1:58 PM 70.0 °F 55.9 °F 61% 30.03 in 10.0 mi Variable 6.9 mph - N/A   Mostly Cloudy
2:58 PM 70.0 °F 55.0 °F 59% 30.04 in 10.0 mi Variable 5.8 mph - N/A   Mostly Cloudy
3:58 PM 69.1 °F 54.0 °F 58% 30.04 in 10.0 mi Calm Calm - N/A   Partly Cloudy
4:58 PM 66.0 °F 52.0 °F 60% 30.06 in 10.0 mi NNW 6.9 mph - N/A   Mostly Cloudy
5:58 PM 60.1 °F 51.1 °F 72% 30.08 in 10.0 mi Calm Calm - N/A   Clear
6:58 PM 59.0 °F 53.1 °F 81% 30.10 in 10.0 mi North 3.5 mph - N/A   Mostly Cloudy
7:28 PM 59.0 °F 53.6 °F 82% 30.12 in 10.0 mi North 5.8 mph - N/A   Mostly Cloudy
7:58 PM 59.0 °F 54.0 °F 83% 30.13 in 10.0 mi North 6.9 mph - N/A   Mostly Cloudy
8:41 PM 57.2 °F 51.8 °F 82% 30.16 in 10.0 mi North 10.4 mph 19.6 mph N/A   Overcast
8:52 PM 57.2 °F 50.0 °F 77% 30.16 in 10.0 mi North 9.2 mph - N/A   Overcast
8:58 PM 57.0 °F 50.0 °F 77% 30.16 in 10.0 mi North 5.8 mph - N/A   Overcast
9:58 PM 57.0 °F 50.0 °F 77% 30.17 in 10.0 mi NNE 8.1 mph - N/A   Overcast
10:58 PM 55.9 °F 48.0 °F 75% 30.18 in 10.0 mi North 8.1 mph - N/A   Overcast
11:58 PM 55.0 °F 48.0 °F 77% 30.17 in 10.0 mi NNE 10.4 mph - N/A   Overcast